Location: Newark
(35.3063°N, 139.5103°E)
Time: 06:10:07
(UTC+00:00)

Envisat - Visible Passes

Search period start: 06 December 2019 00:00
Search period end: 16 December 2019 00:00
Orbit: 764 x 766 km, 98.1° (Epoch: 05 December)

Date Brightness Start Highest point End Pass type
(mag) Time Alt. Az. Time Alt. Az. Time Alt. Az.
06 Dec 3.1 08:22:51 10° SSE 08:27:46 54° ENE 08:32:43 10° N visible
06 Dec 5.9 10:04:20 10° SW 10:07:04 14° W 10:09:49 10° WNW visible
06 Dec 5.6 20:35:32 10° NE 20:39:36 24° E 20:43:39 10° SSE visible
07 Dec 4.6 09:25:27 10° SSW 09:30:02 34° W 09:34:39 10° NNW visible
08 Dec 3.0 08:48:07 10° S 08:53:12 83° WSW 08:58:18 10° NNW visible
08 Dec 4.4 21:00:23 10° NNE 21:05:13 43° E 21:10:02 10° S visible
09 Dec 3.3 08:11:48 10° SE 08:16:33 42° ENE 08:21:18 10° N visible
09 Dec 5.6 09:52:09 10° SW 09:55:41 19° W 09:59:14 10° NW visible
09 Dec 5.9 20:24:45 10° NE 20:28:15 19° E 20:31:43 10° SE visible
10 Dec 4.1 09:13:54 10° S 09:18:43 44° W 09:23:35 10° NNW visible
11 Dec 2.9 08:36:53 10° SSE 08:41:56 77° ENE 08:47:01 10° N visible
11 Dec 4.9 20:49:18 10° NNE 20:53:54 34° E 20:58:28 10° SSE visible
12 Dec 3.6 08:00:51 10° SE 08:05:20 33° ENE 08:09:50 10° N visible
12 Dec 5.2 09:40:16 10° SSW 09:44:20 24° W 09:48:26 10° NW visible
12 Dec 6.1 20:14:12 10° ENE 20:16:52 14° E 20:19:31 10° SE visible
13 Dec 3.6 09:02:26 10° S 09:07:25 58° W 09:12:25 10° NNW visible
14 Dec 3.0 08:25:43 10° SSE 08:30:41 59° ENE 08:35:41 10° N visible
14 Dec 6.1 10:07:44 10° WSW 10:10:02 13° W 10:12:20 10° WNW visible
14 Dec 5.4 20:38:20 10° NE 20:42:33 26° E 20:46:47 10° SSE visible
15 Dec 3.9 07:50:01 10° ESE 07:54:08 26° ENE 07:58:17 10° NNE visible
15 Dec 4.8 09:28:31 10° SSW 09:32:59 31° W 09:37:29 10° NW visible
15 Dec 6.4 20:04:27 10° ENE 20:05:29 11° E 20:06:29 10° ESE visible
